[[{"header":{"parameterUnit":"m.s-1","parameterCategory":2,"la1":30.2991,"la2":30.254,"lo1":-89.0895,"lo2":-89.0444,"dy":0.0017,"dx":0.0017,"nx":28,"ny":28,"refTime":"2025-04-20T03:00:00:Z","depth":"0","parameterNumber":2,"parameterNumberName":"U-component_of_CURRENTS"},"data":[0,0,0,0,0,0,0,0,0,0,0,0,0,0,0,0,0,0,0,0,0,0,0,0,0,0,0,0,0,0,0,0,0,0,0,0,0,0,0,0,0,0,0,0,0,0,0,0,0,0,0,0,0,0,0,0,0,0,0.2786,0.2786,0,0.277,0.2769,0.2769,0.2718,0.2717,0.2717,0.2716,0.2605,0.2603,0.2601,0,0,0,0,0,0,0,0,0,0,0,0,0,0.2722,0.2723,0.2786,0.2786,0.2786,0.277,0.2769,0.2768,0.2718,0.2717,0.2717,0.2716,0.2606,0.2603,0.2601,0,0,0,0,0,0,0,0,0,0,0,0,0,0.2728,0.2724,0.2786,0.2762,0.276,0.277,0.2769,0.2768,0.2718,0.2717,0.2716,0.2715,0.2607,0.2604,0.26,0.2601,0,0,0.259,0.2589,0,0,0,0,0,0,0,0,0.2728,0.273,0.2765,0.2764,0.2762,0.2748,0.2706,0.2709,0.2719,0.273,0.2716,0.2715,0.2648,0.2641,0.2636,0.2596,0.2592,0.259,0.2588,0.2586,0.2585,0,0,0,0,0,0,0,0.2728,0.273,0.2775,0.2766,0.2764,0.2735,0.2735,0.2706,0.269,0.2729,0.2726,0.2731,0.2645,0.264,0.2633,0.259,0.259,0.2587,0.2585,0.2583,0.2577,0.2579,0,0,0,0,0,0,0.2742,0.273,0.2776,0.2775,0.2746,0.2738,0.2737,0.275,0.2693,0.2685,0.2732,0.2729,0.2646,0.2637,0.2629,0.2667,0.2586,0.2583,0.2581,0.2576,0.2578,0.258,0,0,0,0,0,0,0.2741,0.2747,0.2776,0.2755,0.2757,0.2741,0.2756,0.2751,0.2755,0.2697,0.2686,0.2743,0.2645,0.2633,0.2608,0.266,0.2582,0.2578,0.2573,0.2576,0.2579,0.2717,0,0,0,0,0,0,0.2739,0.2747,0.2765,0.2756,0.2759,0.281,0.2757,0.2751,0.2761,0.2757,0.2702,0.269,0.2643,0.2614,0.2605,0.2654,0.2576,0.2571,0.2575,0.2578,0.271,0.2724,0.2736,0,0,0,0,0,0.2737,0.2771,0.2767,0.2772,0.2784,0.2813,0.2813,0.2792,0.2763,0.2786,0.2731,0.2693,0.2631,0.2612,0.2601,0.2651,0.2569,0.2574,0.2578,0.2704,0.2722,0.2736,0,0,0,0,0,0,0.2746,0.277,0.2764,0.2801,0.2819,0.2807,0.2824,0.2808,0.2785,0.2769,0.2703,0.2689,0.2695,0.265,0.2631,0.2661,0.26,0.2602,0.27,0.2716,0.2728,0.2757,0.2573,0,0,0,0,0,0.2762,0.2793,0.2809,0.2838,0.2853,0.2841,0.2848,0.2839,0.2817,0.2806,0.2766,0.2724,0.2705,0.2689,0.2665,0.2669,0.2664,0.2698,0.2712,0.2723,0.274,0.2786,0.2805,0.2594,0.2594,0.2594,0,0,0.2766,0.2788,0.2801,0.2843,0.2848,0.2873,0.2842,0.2868,0.288,0.2796,0.2795,0.2769,0.2717,0.2729,0.2729,0.2695,0.2782,0.2728,0.2739,0.2749,0.2792,0.2813,0.2832,0.2597,0.2596,0.2596,0,0,0.2793,0.2821,0.2854,0.2879,0.2909,0.291,0.2925,0.2929,0.2928,0.2927,0.2879,0.289,0.2837,0.2835,0.2818,0.289,0.2854,0.2878,0.2963,0.3008,0.3026,0.3042,0.307,0.3087,0.2881,0.2881,0.2881,0,0.2791,0.2841,0.2868,0.2906,0.2925,0.2931,0.2961,0.2971,0.2962,0.2972,0.2942,0.2927,0.2897,0.2927,0.2956,0.2926,0.2929,0.2907,0.3028,0.3043,0.3058,0.3082,0.3099,0.2888,0.2887,0.2886,0.2886,0,0.2839,0.2879,0.2905,0.2951,0.2982,0.3015,0.3037,0.3063,0.3057,0.3061,0.3099,0.3072,0.3065,0.3073,0.3031,0.3122,0.3086,0.3046,0.2993,0.3088,0.3106,0.3122,0.2898,0.2896,0.2894,0.2892,0,0,0.281,0.2915,0.2921,0.2952,0.3008,0.3034,0.308,0.3127,0.3155,0.3174,0.3219,0.3231,0.3234,0.3218,0.3195,0.3243,0.3357,0.3193,0.3192,0.3231,0.3448,0.3361,0.3369,0.3334,0.3338,0.334,0.3424,0,0.2827,0.2912,0.2958,0.3018,0.3058,0.3093,0.3133,0.3177,0.3206,0.3255,0.3284,0.3309,0.3281,0.3289,0.3344,0.3356,0.3403,0.3337,0.3342,0.3342,0.3262,0.3386,0.3205,0.3259,0.3439,0.3442,0.3444,0,0.2845,0.2903,0.2977,0.3059,0.3078,0.311,0.3184,0.3222,0.3302,0.3327,0.3386,0.3396,0.3488,0.3436,0.3537,0.3493,0.3488,0.3494,0.3496,0.3378,0.3285,0.3191,0.328,0.316,0.3467,0.3465,0.3464,0,0.2816,0.2908,0.2971,0.2998,0.3092,0.3124,0.3165,0.3241,0.3284,0.338,0.3419,0.3513,0.3556,0.3603,0.3625,0.3588,0.3722,0.3659,0.3576,0.3568,0.3397,0.3368,0.3376,0.3726,0.3726,0.3726,0.3726,0,0.282,0.2864,0.2959,0.2995,0.3047,0.3113,0.3176,0.323,0.332,0.3386,0.3451,0.3519,0.3601,0.3673,0.3681,0.3696,0.3767,0.3627,0.3601,0.3438,0.3413,0.3282,0.3252,0.3729,0.3728,0.3728,0.3727,0,0.2787,0.2858,0.2922,0.3017,0.3041,0.3074,0.3169,0.322,0.3301,0.3394,0.3429,0.3556,0.3664,0.3722,0.3809,0.3749,0.3661,0.3744,0.3544,0.3493,0.3272,0.3257,0.3184,0.3087,0.3677,0.3676,0.3675,0,0.2783,0.2818,0.2915,0.2946,0.2988,0.305,0.3096,0.3195,0.3255,0.341,0.3456,0.359,0.3676,0.3775,0.3733,0.3742,0.3627,0.3521,0.3416,0.3272,0.3237,0.3148,0.3065,0.3248,0.3244,0.324,0.3237,0,0.2757,0.2793,0.2848,0.2911,0.296,0.3016,0.3091,0.3135,0.3263,0.3335,0.3454,0.354,0.3639,0.3591,0.3583,0.3543,0.3338,0.3441,0.335,0.2969,0.2816,0.2703,0.3179,0.3204,0.3207,0.321,0.3211,0.3213,0.2718,0.2744,0.2815,0.2855,0.2914,0.2962,0.2974,0.3063,0.3135,0.3203,0.3364,0.3403,0.341,0.3392,0.3343,0.3064,0.3131,0.2897,0.2915,0.2855,0.2689,0.3093,0.3046,0.3048,0.305,0.3052,0.3053,0,0.2649,0.2701,0.2753,0.2807,0.2828,0.2884,0.295,0.2933,0.2965,0.3063,0.3126,0.3093,0.3002,0.295,0.2709,0.2545,0.2426,0.2445,0.2274,0.2237,0.2635,0.2539,0.2308,0.2308,0.2308,0.2308,0.2308,0.2309,0.2625,0.2654,0.2683,0.269,0.2724,0.2706,0.2714,0.2696,0.2729,0.2672,0.2635,0.2684,0.2672,0.2514,0.2244,0.2159,0.199,0.1892,0.1937,0.2203,0.2245,0.2285,0.2186,0.1885,0.1884,0.1394,0.139,0.1388]},{"header":{"parameterUnit":"m.s-1","parameterCategory":2,"la1":30.2991,"la2":30.254,"lo1":-89.0895,"lo2":-89.0444,"dy":0.0017,"dx":0.0017,"nx":28,"ny":28,"refTime":"2025-04-20T03:00:00:Z","depth":"0","parameterNumber":3,"parameterNumberName":"V-component_of_CURRENTS"},"data":[0,0,0,0,0,0,0,0,0,0,0,0,0,0,0,0,0,0,0,0,0,0,0,0,0,0,0,0,0,0,0,0,0,0,0,0,0,0,0,0,0,0,0,0,0,0,0,0,0,0,0,0,0,0,0,0,0,0,0.0059,0.0059,0,0.007,0.007,0.007,0.008,0.008,0.008,0.008,0.0106,0.0107,0.0107,0,0,0,0,0,0,0,0,0,0,0,0,0,0.0051,0.0051,0.0059,0.0059,0.0059,0.007,0.007,0.007,0.008,0.008,0.008,0.008,0.0106,0.0107,0.0107,0,0,0,0,0,0,0,0,0,0,0,0,0,0.0057,0.0051,0.0059,0.0066,0.0067,0.007,0.007,0.007,0.008,0.008,0.008,0.0081,0.0106,0.0107,0.0107,0.0107,0,0,0.011,0.011,0,0,0,0,0,0,0,0,0.0057,0.0057,0.0065,0.0066,0.0066,0.0074,0.0076,0.0083,0.008,0.0074,0.008,0.0081,0.0097,0.0099,0.0099,0.0108,0.0109,0.011,0.011,0.0111,0.0111,0,0,0,0,0,0,0,0.0056,0.0057,0.0063,0.0065,0.0066,0.007,0.0071,0.0078,0.0084,0.0075,0.0076,0.0078,0.0098,0.0098,0.01,0.0109,0.011,0.011,0.0111,0.0111,0.0127,0.0127,0,0,0,0,0,0,0.0056,0.0056,0.0062,0.0063,0.0063,0.007,0.0071,0.0071,0.0083,0.0086,0.0077,0.0078,0.0097,0.0099,0.0101,0.0119,0.0111,0.0111,0.0112,0.0127,0.0127,0.0126,0,0,0,0,0,0,0.0055,0.0056,0.0062,0.006,0.0062,0.007,0.007,0.0071,0.0074,0.0085,0.0088,0.0079,0.0097,0.01,0.0113,0.0119,0.0112,0.0112,0.0127,0.0127,0.0127,0.0143,0,0,0,0,0,0,0.0055,0.0056,0.0054,0.006,0.0062,0.0067,0.0069,0.0071,0.0075,0.0076,0.0088,0.009,0.0097,0.0112,0.0114,0.012,0.0113,0.0127,0.0127,0.0127,0.0143,0.0144,0.0145,0,0,0,0,0,0.0055,0.0055,0.0054,0.0055,0.006,0.0068,0.0069,0.0075,0.0075,0.0078,0.0088,0.009,0.0113,0.0113,0.0115,0.0122,0.0127,0.0127,0.0127,0.0143,0.0144,0.0145,0,0,0,0,0,0,0.0056,0.0057,0.0055,0.0057,0.0062,0.007,0.0073,0.0075,0.0083,0.0086,0.0094,0.0097,0.011,0.0111,0.0111,0.0124,0.0118,0.0118,0.0129,0.0131,0.0132,0.0148,0.0114,0,0,0,0,0,0.0053,0.0052,0.0056,0.0058,0.006,0.0064,0.0068,0.0073,0.0081,0.0085,0.0092,0.01,0.011,0.0117,0.0123,0.0133,0.0137,0.0136,0.0137,0.0138,0.0152,0.0174,0.0179,0.0126,0.0126,0.0126,0,0,0.0056,0.0055,0.0055,0.0057,0.0061,0.0072,0.0067,0.0075,0.0087,0.0087,0.0103,0.0104,0.0113,0.0125,0.013,0.0128,0.0147,0.0137,0.0138,0.0152,0.0175,0.018,0.0185,0.0126,0.0126,0.0126,0,0,0.0064,0.0057,0.0061,0.0065,0.0071,0.0075,0.0078,0.0084,0.0091,0.0102,0.0107,0.0115,0.0123,0.0137,0.0143,0.0152,0.0151,0.0145,0.0168,0.0189,0.0194,0.0199,0.0181,0.0184,0.0147,0.0147,0.0147,0,0.0068,0.0073,0.0065,0.0073,0.0083,0.0078,0.0095,0.0099,0.011,0.0128,0.011,0.0139,0.0132,0.017,0.0163,0.0156,0.0156,0.0164,0.0192,0.0197,0.0202,0.0182,0.0185,0.0148,0.0147,0.0147,0.0147,0,0.0082,0.0087,0.0091,0.0099,0.0108,0.012,0.0127,0.0139,0.0139,0.015,0.0178,0.0171,0.0194,0.0182,0.0171,0.0202,0.0185,0.0191,0.0193,0.0208,0.0186,0.0189,0.0149,0.0148,0.0148,0.0148,0,0,0.0099,0.01,0.0105,0.0117,0.0125,0.0139,0.016,0.019,0.0222,0.0215,0.0261,0.0249,0.0248,0.0254,0.0244,0.025,0.0253,0.023,0.0231,0.0218,0.0276,0.0257,0.0258,0.0269,0.0271,0.0272,0.0237,0,0.0118,0.0139,0.0136,0.0166,0.0183,0.0189,0.0217,0.0242,0.0258,0.0297,0.0296,0.0322,0.0276,0.0285,0.0286,0.028,0.0267,0.026,0.0259,0.0258,0.0246,0.0264,0.0275,0.0246,0.024,0.024,0.0241,0,0.0141,0.0153,0.0181,0.0213,0.0223,0.024,0.0297,0.032,0.0367,0.0381,0.0407,0.0407,0.042,0.0372,0.0364,0.0365,0.0314,0.0292,0.0291,0.0277,0.0246,0.0235,0.0252,0.0126,0.0245,0.0245,0.0245,0,0.017,0.0192,0.0216,0.0224,0.0255,0.0279,0.0301,0.035,0.0388,0.0437,0.0469,0.0488,0.0502,0.0469,0.041,0.039,0.0399,0.0368,0.0296,0.0292,0.0304,0.03,0.0212,0.0348,0.0348,0.0348,0.0348,0,0.0197,0.0222,0.023,0.0245,0.0295,0.0306,0.0368,0.0398,0.0454,0.0518,0.0511,0.0564,0.0528,0.0527,0.0453,0.0397,0.0431,0.0307,0.0296,0.0305,0.0302,0.0196,0.0124,0.0346,0.0347,0.0347,0.0347,0,0.023,0.0229,0.0263,0.0292,0.0307,0.0344,0.0401,0.0454,0.049,0.0575,0.0592,0.0632,0.0639,0.0589,0.0546,0.0455,0.0331,0.0359,0.0352,0.0341,0.0143,0.0072,-0.0023,-0.007,0.027,0.0269,0.0269,0,0.0251,0.0265,0.0297,0.0323,0.0336,0.0385,0.0432,0.0474,0.053,0.0623,0.0673,0.0705,0.0763,0.0691,0.0565,0.0452,0.0325,0.0331,0.029,0.0141,0.0053,-0.0007,-0.0044,0.0292,0.0292,0.0292,0.0292,0,0.0295,0.0296,0.0323,0.037,0.0411,0.0466,0.0526,0.0576,0.0643,0.0727,0.0832,0.0888,0.0829,0.0767,0.0602,0.0492,0.0243,0.0321,0.019,0.0085,-0.0005,-0.0058,0.027,0.0291,0.0291,0.0291,0.0291,0.0291,0.0332,0.0354,0.0378,0.0426,0.0476,0.0545,0.0604,0.069,0.0801,0.0952,0.0972,0.1115,0.0946,0.0753,0.0576,0.023,0.0223,0.0111,0.004,-0.0006,-0.0055,0.0248,0.0246,0.0246,0.0246,0.0246,0.0246,0,0.0379,0.0395,0.0437,0.0492,0.0553,0.057,0.0673,0.0757,0.091,0.1086,0.1208,0.1247,0.1015,0.0733,0.0271,0.0008,-0.0093,-0.0147,-0.0229,-0.025,0.0046,0.0044,-0.0028,-0.0028,-0.0028,-0.0028,-0.0028,-0.0028,0.0404,0.0445,0.0457,0.0548,0.0592,0.0689,0.0754,0.0899,0.105,0.1293,0.144,0.1529,0.1279,0.0427,-0.0148,-0.0274,-0.0465,-0.0507,-0.0599,-0.0409,-0.0391,-0.0373,-0.0392,-0.0555,-0.0556,-0.0853,-0.0856,-0.0859]}],[{"header":{"parameterUnit":"m.s-1","parameterCategory":2,"la1":30.2991,"la2":30.254,"lo1":-89.0895,"lo2":-89.0444,"dy":0.0017,"dx":0.0017,"nx":28,"ny":28,"refTime":"2025-04-20T03:00:00:Z","depth":"2","parameterNumber":2,"parameterNumberName":"U-component_of_CURRENTS"},"data":[0,0,0,0,0,0,0,0,0,0,0,0,0,0,0,0,0,0,0,0,0,0,0,0,0,0,0,0,0,0,0,0,0,0,0,0,0,0,0,0,0,0,0,0,0,0,0,0,0,0,0,0,0,0,0,0,0,0,0.1872,0.1872,0,0.1816,0.1815,0.1814,0.1808,0.1809,0.1809,0.181,0.186,0.1861,0.1861,0,0,0,0,0,0,0,0,0,0,0,0,0,0.191,0.1909,0.1872,0.1872,0.1871,0.1816,0.1815,0.1814,0.1808,0.1809,0.181,0.181,0.186,0.186,0.1861,0,0,0,0,0,0,0,0,0,0,0,0,0,0.1875,0.1909,0.1872,0.1863,0.1862,0.1816,0.1815,0.1813,0.1808,0.1809,0.181,0.1811,0.1859,0.186,0.1861,0.1844,0,0,0.1864,0.1864,0,0,0,0,0,0,0,0,0.1877,0.1874,0.1865,0.1864,0.1862,0.1822,0.1846,0.183,0.1807,0.1826,0.181,0.1811,0.1858,0.1859,0.1841,0.1846,0.1848,0.1864,0.1865,0.1865,0.1865,0,0,0,0,0,0,0,0.188,0.1876,0.1848,0.1864,0.1863,0.1839,0.1836,0.1842,0.1836,0.1824,0.1824,0.1821,0.1858,0.184,0.1842,0.1849,0.1864,0.1865,0.1866,0.1866,0.1945,0.1947,0,0,0,0,0,0,0.1893,0.1878,0.1849,0.1846,0.1875,0.1838,0.1835,0.1832,0.1834,0.1835,0.182,0.1821,0.1838,0.1841,0.1844,0.1914,0.1865,0.1866,0.1866,0.1944,0.1946,0.1947,0,0,0,0,0,0,0.1894,0.1891,0.1852,0.1863,0.1856,0.1837,0.1834,0.183,0.1836,0.183,0.1833,0.1832,0.1839,0.1843,0.189,0.1913,0.1866,0.1867,0.1942,0.1944,0.1946,0.1996,0,0,0,0,0,0,0.1895,0.1892,0.1895,0.1864,0.1856,0.1862,0.1833,0.1828,0.1831,0.1833,0.1841,0.1845,0.184,0.1888,0.189,0.1913,0.1868,0.194,0.1943,0.1946,0.1992,0.1999,0.2006,0,0,0,0,0,0.1897,0.1889,0.1895,0.1892,0.1861,0.1863,0.1859,0.1846,0.1831,0.1851,0.1859,0.1846,0.1908,0.1891,0.1893,0.1916,0.1938,0.1942,0.1945,0.1989,0.1998,0.2006,0,0,0,0,0,0,0.1907,0.1887,0.1893,0.1882,0.1895,0.1864,0.1867,0.1857,0.1871,0.1876,0.1867,0.1873,0.1919,0.1915,0.1896,0.1949,0.192,0.1924,0.1953,0.1961,0.1968,0.201,0.1869,0,0,0,0,0,0.1912,0.1911,0.1901,0.1906,0.1908,0.1893,0.1889,0.1889,0.1892,0.1897,0.1906,0.1916,0.1928,0.1946,0.1958,0.1989,0.2008,0.2006,0.2013,0.2018,0.2055,0.2093,0.2107,0.1959,0.1959,0.1959,0,0,0.1923,0.1911,0.1914,0.191,0.191,0.1932,0.1894,0.1906,0.1926,0.1903,0.1941,0.1943,0.1943,0.1979,0.1999,0.1984,0.2071,0.2023,0.2028,0.2062,0.2098,0.2113,0.2125,0.1961,0.1961,0.196,0,0,0.1945,0.1934,0.1945,0.1965,0.1977,0.1966,0.198,0.1975,0.1975,0.2011,0.1995,0.2021,0.2042,0.2046,0.2047,0.2101,0.2105,0.2102,0.2172,0.2207,0.222,0.2231,0.2275,0.229,0.2106,0.2106,0.2106,0,0.1956,0.1968,0.1954,0.1984,0.2003,0.1992,0.2026,0.2022,0.204,0.2053,0.2044,0.2097,0.2074,0.2126,0.2134,0.2116,0.2149,0.2135,0.2217,0.2228,0.2239,0.2281,0.2297,0.2109,0.2109,0.2108,0.2108,0,0.1999,0.2019,0.2031,0.2065,0.209,0.2115,0.2122,0.2145,0.214,0.2144,0.2205,0.2197,0.2234,0.2218,0.2186,0.2255,0.2257,0.2217,0.2195,0.2257,0.2297,0.2313,0.2113,0.2112,0.2111,0.211,0,0,0.1981,0.2042,0.2052,0.2083,0.2132,0.2149,0.2196,0.2223,0.2253,0.2289,0.2335,0.2351,0.2362,0.2366,0.2342,0.2367,0.2433,0.2333,0.2333,0.2377,0.2541,0.2432,0.2439,0.2414,0.2417,0.242,0.2538,0,0.2014,0.2075,0.2103,0.2177,0.2203,0.2235,0.228,0.2319,0.2335,0.2378,0.2393,0.2443,0.2412,0.2438,0.246,0.2436,0.248,0.2408,0.2476,0.2479,0.2374,0.2454,0.224,0.2318,0.2553,0.2555,0.2557,0,0.2028,0.2071,0.2147,0.2217,0.2234,0.2291,0.236,0.2402,0.2462,0.2485,0.2562,0.2574,0.2637,0.2581,0.2653,0.2616,0.26,0.2586,0.2589,0.2489,0.24,0.2295,0.2338,0.2583,0.2581,0.2579,0.2578,0,0.2,0.2081,0.2137,0.2175,0.2271,0.2319,0.2367,0.2444,0.2485,0.2577,0.2633,0.2711,0.2754,0.2779,0.2738,0.2718,0.2789,0.2744,0.2657,0.2649,0.2482,0.2454,0.2816,0.2815,0.2815,0.2815,0.2814,0,0.1997,0.2042,0.2134,0.2185,0.226,0.2328,0.2415,0.2476,0.2567,0.2636,0.2703,0.2775,0.2808,0.2834,0.2798,0.2776,0.2848,0.2709,0.2682,0.2491,0.2464,0.2698,0.2683,0.2819,0.2818,0.2817,0.2817,0,0.198,0.2028,0.2105,0.2222,0.2256,0.2324,0.2449,0.2496,0.261,0.2706,0.2755,0.2848,0.2905,0.2908,0.2922,0.2847,0.2827,0.2793,0.257,0.2514,0.2663,0.265,0.2762,0.276,0.2757,0.2756,0.2754,0,0.1987,0.2028,0.2147,0.218,0.2245,0.2341,0.2394,0.2512,0.2564,0.2741,0.277,0.2884,0.288,0.2873,0.28,0.2758,0.2807,0.2526,0.2438,0.2701,0.2664,0.2653,0.2643,0.2249,0.2243,0.2239,0.2235,0,0.2019,0.2059,0.2118,0.2188,0.2247,0.2318,0.2405,0.2446,0.258,0.2638,0.2713,0.2732,0.2771,0.2605,0.255,0.2495,0.2515,0.2432,0.2781,0.2274,0.2219,0.2181,0.2188,0.2194,0.2198,0.2201,0.2203,0.2205,0.2027,0.207,0.2119,0.2153,0.2231,0.2265,0.2272,0.2322,0.2358,0.2375,0.2497,0.2417,0.2442,0.2228,0.2157,0.2132,0.231,0.2187,0.22,0.2219,0.2117,0.2059,0.1987,0.1989,0.1992,0.1994,0.1996,0,0.1988,0.2014,0.2066,0.2093,0.2107,0.2194,0.2239,0.216,0.2107,0.2126,0.2095,0.1872,0.1753,0.1819,0.1716,0.1707,0.169,0.1643,0.1604,0.1646,0.1683,0.1553,0.1274,0.1271,0.1269,0.1267,0,0,0.1947,0.194,0.1937,0.191,0.1965,0.1955,0.1953,0.1825,0.1776,0.1611,0.1537,0.157,0.1698,0.1419,0.1416,0.1329,0.1467,0.1275,0.1856,0.1848,0.1882,0.2003,0.185,0,0,0,0,0]},{"header":{"parameterUnit":"m.s-1","parameterCategory":2,"la1":30.2991,"la2":30.254,"lo1":-89.0895,"lo2":-89.0444,"dy":0.0017,"dx":0.0017,"nx":28,"ny":28,"refTime":"2025-04-20T03:00:00:Z","depth":"2","parameterNumber":3,"parameterNumberName":"V-component_of_CURRENTS"},"data":[0,0,0,0,0,0,0,0,0,0,0,0,0,0,0,0,0,0,0,0,0,0,0,0,0,0,0,0,0,0,0,0,0,0,0,0,0,0,0,0,0,0,0,0,0,0,0,0,0,0,0,0,0,0,0,0,0,0,-0.011,-0.011,0,-0.009,-0.009,-0.009,-0.0087,-0.0087,-0.0087,-0.0088,-0.0067,-0.0066,-0.0065,0,0,0,0,0,0,0,0,0,0,0,0,0,-0.0112,-0.0112,-0.011,-0.011,-0.011,-0.009,-0.009,-0.009,-0.0087,-0.0087,-0.0087,-0.0088,-0.0067,-0.0066,-0.0065,0,0,0,0,0,0,0,0,0,0,0,0,0,-0.0103,-0.0112,-0.011,-0.0107,-0.0106,-0.009,-0.009,-0.0089,-0.0087,-0.0087,-0.0088,-0.0088,-0.0067,-0.0066,-0.0065,-0.005,0,0,-0.0061,-0.0061,0,0,0,0,0,0,0,0,-0.0104,-0.0103,-0.0107,-0.0107,-0.0106,-0.0092,-0.0083,-0.0077,-0.0087,-0.0093,-0.0088,-0.0088,-0.0075,-0.0073,-0.0068,-0.0049,-0.0048,-0.0061,-0.006,-0.006,-0.006,0,0,0,0,0,0,0,-0.0104,-0.0104,-0.0102,-0.0107,-0.0106,-0.0094,-0.0094,-0.0081,-0.0082,-0.0093,-0.0093,-0.0091,-0.0075,-0.0069,-0.0067,-0.0048,-0.0061,-0.006,-0.0059,-0.0059,-0.0026,-0.0026,0,0,0,0,0,0,-0.0109,-0.0105,-0.0102,-0.0101,-0.0106,-0.0094,-0.0093,-0.0096,-0.0082,-0.0081,-0.0091,-0.0091,-0.0071,-0.0069,-0.0067,-0.0052,-0.006,-0.0059,-0.0058,-0.0026,-0.0026,-0.0026,0,0,0,0,0,0,-0.011,-0.011,-0.0103,-0.0103,-0.0101,-0.0094,-0.0096,-0.0095,-0.0095,-0.0081,-0.0079,-0.0094,-0.0071,-0.0068,-0.005,-0.0051,-0.0058,-0.0057,-0.0026,-0.0026,-0.0026,-0.002,0,0,0,0,0,0,-0.011,-0.011,-0.0113,-0.0103,-0.0101,-0.0099,-0.0096,-0.0094,-0.0094,-0.0094,-0.0082,-0.008,-0.0071,-0.0052,-0.0049,-0.0049,-0.0056,-0.0027,-0.0026,-0.0026,-0.0021,-0.002,-0.0019,0,0,0,0,0,-0.011,-0.0105,-0.0113,-0.0113,-0.0106,-0.0099,-0.0097,-0.0093,-0.0094,-0.0094,-0.0078,-0.0081,-0.0049,-0.0051,-0.0047,-0.0047,-0.0027,-0.0026,-0.0026,-0.0021,-0.002,-0.0019,0,0,0,0,0,0,-0.0101,-0.0104,-0.0113,-0.0109,-0.0111,-0.0099,-0.0094,-0.0096,-0.0084,-0.0082,-0.0071,-0.0068,-0.0054,-0.0051,-0.0053,-0.0038,-0.0041,-0.004,-0.0039,-0.0038,-0.0037,-0.0044,-0.0055,0,0,0,0,0,-0.0104,-0.0108,-0.0108,-0.0108,-0.0107,-0.0105,-0.0101,-0.0101,-0.0089,-0.0085,-0.0078,-0.0066,-0.0048,-0.0043,-0.003,-0.0019,-0.0017,-0.0019,-0.0018,-0.0018,-0.0021,0.0001,0.0004,-0.0025,-0.0025,-0.0025,0,0,-0.0102,-0.0104,-0.0107,-0.0108,-0.0106,-0.01,-0.0103,-0.0099,-0.009,-0.0084,-0.0068,-0.0061,-0.0044,-0.0028,-0.0023,-0.0027,-0.0012,-0.0017,-0.0017,-0.0021,0.0002,0.0005,0.0008,-0.0024,-0.0024,-0.0024,0,0,-0.0091,-0.0101,-0.0098,-0.0103,-0.0104,-0.0098,-0.01,-0.0095,-0.0089,-0.0076,-0.0066,-0.0058,-0.0039,-0.0025,-0.0015,-0.0003,-0.0006,-0.0006,-0.0009,0.0014,0.0017,0.0019,0.001,0.0012,-0.0008,-0.0008,-0.0008,0,-0.0085,-0.0086,-0.0096,-0.0094,-0.0092,-0.0098,-0.009,-0.0083,-0.0074,-0.0062,-0.0072,-0.0041,-0.0035,-0.0005,-0.0008,-0.0001,0.0,-0.0012,0.0015,0.0018,0.002,0.0011,0.0012,-0.0008,-0.0008,-0.0008,-0.0008,0,-0.0075,-0.0078,-0.0074,-0.0076,-0.0076,-0.0071,-0.0066,-0.006,-0.0057,-0.005,-0.0031,-0.0024,-0.0007,-0.0009,-0.0006,0.0012,0.0003,0.0017,0.0014,0.0024,0.0012,0.0014,-0.0007,-0.0007,-0.0008,-0.0008,0,0,-0.0043,-0.0061,-0.006,-0.0057,-0.0067,-0.0056,-0.0045,-0.0025,0.0,-0.0012,0.0022,0.0019,0.001,0.002,0.0019,0.0025,0.0031,0.002,0.0021,0.0011,0.0058,0.0033,0.0032,0.0054,0.0055,0.0055,0.0038,0,-0.0026,-0.0019,-0.0034,-0.0019,-0.0011,-0.0019,-0.0003,0.0008,0.0023,0.0054,0.0049,0.0072,0.0027,0.0036,0.0033,0.0055,0.0038,0.0033,0.005,0.005,0.0027,0.0035,0.0041,0.0026,0.004,0.004,0.0041,0,-0.0002,-0.0001,0.0006,0.0018,0.0023,0.0025,0.0059,0.0072,0.0102,0.0111,0.0113,0.0119,0.0122,0.0088,0.0085,0.0086,0.0057,0.0053,0.0053,0.0029,0.0029,0.0022,0.0029,0.0043,0.0043,0.0043,0.0043,0,0.0033,0.004,0.0048,0.0045,0.0047,0.0055,0.0063,0.0085,0.0118,0.0144,0.0176,0.017,0.0199,0.0159,0.0129,0.0113,0.0133,0.0121,0.0057,0.0054,0.0061,0.0058,0.0097,0.0097,0.0097,0.0097,0.0098,0,0.0064,0.0076,0.0062,0.0062,0.0097,0.0079,0.0122,0.0133,0.0165,0.0237,0.0199,0.027,0.0222,0.0232,0.0163,0.0121,0.0155,0.0052,0.0054,0.0061,0.0058,0.0079,0.0077,0.0097,0.0097,0.0097,0.0097,0,0.0097,0.0082,0.01,0.0099,0.0107,0.0127,0.0158,0.0208,0.0209,0.0307,0.0317,0.0364,0.0381,0.0308,0.0283,0.0189,0.0135,0.01,0.009,0.0091,0.0021,0.002,0.0024,0.0023,0.0022,0.0021,0.0021,0,0.0112,0.0117,0.013,0.0157,0.0153,0.0181,0.0221,0.0228,0.0296,0.039,0.0467,0.0497,0.0571,0.0485,0.0331,0.0186,0.0161,0.0065,0.0027,0.0015,0.0017,0.0017,0.0016,0.0031,0.0031,0.0031,0.0031,0,0.0153,0.0149,0.0169,0.0214,0.0252,0.031,0.0367,0.0427,0.0481,0.0583,0.0739,0.0796,0.0698,0.0588,0.0346,0.0243,0.0084,0.0052,0.0079,0.0045,0.002,0.0023,0.0023,0.0028,0.0028,0.0028,0.0028,0.0028,0.0201,0.0222,0.0249,0.0311,0.035,0.0444,0.0519,0.0629,0.0769,0.092,0.0949,0.1007,0.0815,0.053,0.0328,0.0079,0.0095,-0.0011,-0.0008,-0.0006,-0.0006,-0.0031,-0.0035,-0.0035,-0.0035,-0.0035,-0.0035,0,0.0291,0.0311,0.0357,0.0431,0.0504,0.0499,0.0635,0.0743,0.0959,0.1046,0.1166,0.0986,0.082,0.0566,0.0194,-0.0012,-0.0024,-0.0081,-0.0058,-0.0053,-0.0049,-0.0051,-0.0093,-0.0094,-0.0094,-0.0095,0,0,0.0342,0.0413,0.0436,0.0573,0.0614,0.0726,0.0811,0.0979,0.1066,0.1196,0.1189,0.116,0.0857,0.0578,0.0309,0.0094,0.0066,0.0057,0.0125,0.0189,0.0194,0.0014,0.0019,0,0,0,0,0]}],[{"header":{"parameterUnit":"m.s-1","parameterCategory":2,"la1":30.2991,"la2":30.254,"lo1":-89.0895,"lo2":-89.0444,"dy":0.0017,"dx":0.0017,"nx":28,"ny":28,"refTime":"2025-04-20T03:00:00:Z","depth":"4","parameterNumber":2,"parameterNumberName":"U-component_of_CURRENTS"},"data":[0,0,0,0,0,0,0,0,0,0,0,0,0,0,0,0,0,0,0,0,0,0,0,0,0,0,0,0,0,0,0,0,0,0,0,0,0,0,0,0,0,0,0,0,0,0,0,0,0,0,0,0,0,0,0,0,0,0,0.0822,0.0822,0,0.0875,0.0876,0.0876,0.0938,0.0939,0.094,0.094,0.1047,0.1049,0.1051,0,0,0,0,0,0,0,0,0,0,0,0,0,0.0821,0.0821,0.0822,0.0822,0.0823,0.0875,0.0876,0.0876,0.0938,0.0939,0.094,0.0941,0.1046,0.1049,0.1051,0,0,0,0,0,0,0,0,0,0,0,0,0,0.0844,0.082,0.0822,0.0859,0.0863,0.0875,0.0876,0.0877,0.0938,0.0939,0.094,0.0941,0.1045,0.1048,0.1051,0.1046,0,0,0.1061,0.1062,0,0,0,0,0,0,0,0,0.0842,0.0844,0.0853,0.0856,0.086,0.09,0.0914,0.0935,0.0937,0.091,0.094,0.0942,0.1001,0.1008,0.1016,0.1051,0.1055,0.1061,0.1063,0.1064,0.1065,0,0,0,0,0,0,0,0.084,0.0842,0.0844,0.0853,0.0858,0.0889,0.0893,0.0919,0.095,0.0913,0.0917,0.0921,0.1004,0.1013,0.1019,0.1057,0.1061,0.1064,0.1066,0.1067,0.1173,0.1174,0,0,0,0,0,0,0.0827,0.084,0.0842,0.0845,0.0853,0.0888,0.0893,0.0887,0.0949,0.0959,0.092,0.0923,0.1007,0.1015,0.1023,0.1092,0.1064,0.1067,0.1069,0.1172,0.1173,0.1174,0,0,0,0,0,0,0.0827,0.0826,0.084,0.0844,0.0848,0.0886,0.088,0.0887,0.0917,0.0953,0.0965,0.0943,0.1008,0.1019,0.1073,0.1094,0.1069,0.1071,0.1171,0.1173,0.1174,0.1185,0,0,0,0,0,0,0.0826,0.0826,0.0828,0.0842,0.0847,0.0853,0.0879,0.0888,0.0915,0.0921,0.0977,0.0987,0.101,0.1068,0.1076,0.1098,0.1074,0.117,0.1172,0.1173,0.1183,0.1186,0.1189,0,0,0,0,0,0.0826,0.0814,0.0827,0.0829,0.0844,0.0853,0.0859,0.0891,0.0915,0.0924,0.0975,0.0986,0.1085,0.1071,0.108,0.1104,0.1169,0.1171,0.1173,0.1182,0.1186,0.1189,0,0,0,0,0,0,0.0819,0.0819,0.0835,0.0825,0.0844,0.0863,0.0876,0.0898,0.0942,0.0958,0.0999,0.1012,0.1067,0.1082,0.1066,0.114,0.1128,0.1132,0.1131,0.1135,0.1138,0.111,0.1076,0,0,0,0,0,0.0815,0.0809,0.082,0.082,0.0825,0.0855,0.0868,0.0888,0.0923,0.0944,0.0987,0.1035,0.1077,0.1105,0.1139,0.1178,0.1198,0.1199,0.1202,0.1204,0.1188,0.1258,0.1266,0.1182,0.1182,0.1182,0,0,0.0816,0.0815,0.0815,0.0819,0.0838,0.0844,0.0867,0.0884,0.0909,0.0948,0.1006,0.1046,0.109,0.1139,0.1164,0.1159,0.1239,0.1207,0.1208,0.119,0.1261,0.1269,0.1277,0.1183,0.1183,0.1183,0,0,0.0802,0.0811,0.0799,0.081,0.0829,0.0847,0.0854,0.0884,0.0919,0.0971,0.101,0.1061,0.1128,0.1161,0.1187,0.1223,0.1251,0.1241,0.1238,0.1307,0.1315,0.1321,0.1357,0.1367,0.1245,0.1245,0.1245,0,0.0811,0.079,0.0801,0.0795,0.0808,0.0847,0.0848,0.0884,0.0936,0.0971,0.0993,0.1099,0.1136,0.1192,0.1207,0.1229,0.1265,0.1222,0.1311,0.1318,0.1325,0.136,0.137,0.1246,0.1246,0.1246,0.1246,0,0.0779,0.0777,0.0774,0.0781,0.0796,0.0804,0.0844,0.0887,0.0941,0.0979,0.1057,0.111,0.1176,0.1196,0.1215,0.1278,0.1287,0.1306,0.13,0.1334,0.1369,0.138,0.1247,0.1247,0.1247,0.1246,0,0,0.0772,0.0755,0.0758,0.076,0.079,0.0797,0.0849,0.0899,0.0951,0.101,0.1075,0.114,0.1177,0.1206,0.1242,0.1288,0.1368,0.1316,0.1319,0.1345,0.1509,0.1399,0.1401,0.1418,0.142,0.1421,0.1514,0,0.0756,0.0726,0.0732,0.0738,0.0733,0.0788,0.0833,0.0891,0.0967,0.1043,0.1103,0.1176,0.1182,0.1229,0.1276,0.1352,0.1397,0.1339,0.1476,0.1478,0.1373,0.141,0.1428,0.1522,0.1525,0.1527,0.1528,0,0.0724,0.0713,0.0693,0.0718,0.0725,0.0747,0.0837,0.0883,0.0994,0.1058,0.1135,0.1194,0.1267,0.1276,0.1402,0.1373,0.1434,0.1479,0.1485,0.1379,0.1388,0.1483,0.1548,0.1546,0.1545,0.1543,0.1542,0,0.0692,0.0691,0.0674,0.0679,0.0712,0.0745,0.079,0.0893,0.0955,0.1076,0.1144,0.1232,0.1307,0.1386,0.1474,0.1463,0.1607,0.1613,0.1561,0.1554,0.1621,0.1613,0.1698,0.1698,0.1698,0.1698,0.1697,0,0.0651,0.0646,0.0663,0.0651,0.0685,0.0722,0.079,0.0863,0.0973,0.1044,0.115,0.1218,0.1346,0.1442,0.1498,0.1554,0.164,0.1551,0.1572,0.1623,0.1614,0.1629,0.1619,0.1701,0.17,0.17,0.1699,0,0.0595,0.0599,0.0596,0.0634,0.066,0.0688,0.0785,0.0833,0.0954,0.1055,0.1096,0.1244,0.1363,0.1468,0.1608,0.1587,0.165,0.1651,0.1683,0.1706,0.154,0.1531,0.1593,0.159,0.1587,0.1585,0.1583,0,0.0545,0.0529,0.0579,0.0597,0.0616,0.0672,0.0711,0.0819,0.087,0.1052,0.1084,0.1246,0.1335,0.1439,0.1546,0.164,0.1634,0.164,0.158,0.1515,0.1531,0.1526,0.152,0.1579,0.1578,0.1578,0.1577,0,0.0466,0.0497,0.0507,0.055,0.0587,0.0615,0.0678,0.0714,0.0838,0.0957,0.1059,0.1148,0.128,0.1378,0.1469,0.1529,0.1615,0.1613,0.1618,0.1561,0.15,0.1517,0.1514,0.1568,0.1569,0.157,0.1571,0,0.0434,0.0436,0.0467,0.0507,0.054,0.0546,0.0589,0.0647,0.0715,0.091,0.0935,0.1117,0.1249,0.1323,0.14,0.1454,0.144,0.1388,0.1404,0.1415,0.1317,0.121,0.1204,0,0,0,0,0,0.0406,0.0406,0.0421,0.0451,0.0472,0.0495,0.0558,0.0602,0.0726,0.0767,0.0855,0.0969,0.1105,0.119,0.1219,0.1333,0.1443,0.1358,0.1388,0.1518,0.1528,0.143,0,0,0,0,0,0,0.0402,0.0403,0.0406,0.039,0.0395,0.0406,0.0442,0.0521,0.055,0.0694,0.0775,0.0893,0.1041,0.1087,0.1197,0.1226,0.122,0.1468,0.1465,0.1512,0.1521,0.153,0.1432,0,0,0,0,0]},{"header":{"parameterUnit":"m.s-1","parameterCategory":2,"la1":30.2991,"la2":30.254,"lo1":-89.0895,"lo2":-89.0444,"dy":0.0017,"dx":0.0017,"nx":28,"ny":28,"refTime":"2025-04-20T03:00:00:Z","depth":"4","parameterNumber":3,"parameterNumberName":"V-component_of_CURRENTS"},"data":[0,0,0,0,0,0,0,0,0,0,0,0,0,0,0,0,0,0,0,0,0,0,0,0,0,0,0,0,0,0,0,0,0,0,0,0,0,0,0,0,0,0,0,0,0,0,0,0,0,0,0,0,0,0,0,0,0,0,0.0081,0.0081,0,0.0077,0.0077,0.0077,0.0055,0.0054,0.0054,0.0054,0.0051,0.0051,0.0052,0,0,0,0,0,0,0,0,0,0,0,0,0,0.0056,0.0056,0.0081,0.0081,0.0081,0.0077,0.0077,0.0077,0.0055,0.0054,0.0054,0.0053,0.0051,0.0051,0.0052,0,0,0,0,0,0,0,0,0,0,0,0,0,0.006,0.0056,0.0081,0.0071,0.007,0.0077,0.0077,0.0077,0.0055,0.0054,0.0054,0.0053,0.0051,0.0051,0.0052,0.0067,0,0,0.0053,0.0053,0,0,0,0,0,0,0,0,0.0059,0.006,0.0072,0.0071,0.0071,0.0067,0.0067,0.0074,0.0055,0.0059,0.0054,0.0053,0.0058,0.0058,0.0057,0.0067,0.0067,0.0053,0.0054,0.0054,0.0054,0,0,0,0,0,0,0,0.0059,0.006,0.0078,0.0072,0.0071,0.0062,0.0061,0.0068,0.0061,0.0059,0.0058,0.0059,0.0057,0.0056,0.0056,0.0067,0.0053,0.0054,0.0054,0.0054,0.0087,0.0088,0,0,0,0,0,0,0.0064,0.006,0.0078,0.0078,0.0065,0.0063,0.0062,0.0068,0.0061,0.006,0.006,0.0058,0.0056,0.0056,0.0056,0.008,0.0054,0.0054,0.0055,0.0087,0.0088,0.0088,0,0,0,0,0,0,0.0063,0.0066,0.0079,0.007,0.0071,0.0064,0.007,0.0068,0.0066,0.0062,0.006,0.006,0.0055,0.0056,0.0069,0.0079,0.0054,0.0055,0.0086,0.0087,0.0088,0.0123,0,0,0,0,0,0,0.0063,0.0066,0.007,0.007,0.0072,0.0089,0.0071,0.0068,0.0069,0.0066,0.0062,0.0061,0.0055,0.0068,0.0069,0.0079,0.0055,0.0085,0.0087,0.0088,0.0121,0.0125,0.0128,0,0,0,0,0,0.0062,0.0078,0.007,0.0072,0.0078,0.009,0.009,0.0081,0.0069,0.0075,0.0073,0.0061,0.0076,0.007,0.007,0.0081,0.0085,0.0086,0.0088,0.0119,0.0124,0.0128,0,0,0,0,0,0,0.0073,0.0078,0.0069,0.0086,0.0087,0.0087,0.0094,0.0085,0.0086,0.0086,0.0074,0.0073,0.0087,0.0081,0.0075,0.0093,0.0076,0.0078,0.01,0.0105,0.0108,0.0118,0.0056,0,0,0,0,0,0.0076,0.0087,0.0088,0.01,0.0104,0.0097,0.0099,0.0096,0.0098,0.0097,0.0091,0.0089,0.0094,0.0097,0.01,0.0115,0.0096,0.0121,0.0124,0.0127,0.0136,0.0112,0.0114,0.0093,0.0093,0.0093,0,0,0.0083,0.0087,0.0093,0.0103,0.0103,0.0122,0.0097,0.011,0.0122,0.0099,0.0113,0.0104,0.0101,0.0116,0.0121,0.0112,0.0123,0.0129,0.0132,0.0139,0.0114,0.0116,0.0117,0.0094,0.0093,0.0093,0,0,0.011,0.0108,0.0127,0.0135,0.0143,0.0142,0.0147,0.0148,0.0144,0.0157,0.0143,0.0142,0.0147,0.0147,0.0148,0.0175,0.0143,0.017,0.0197,0.0174,0.0176,0.0177,0.0151,0.0149,0.0171,0.0172,0.0172,0,0.0117,0.0143,0.0135,0.0159,0.0172,0.0154,0.0183,0.0181,0.0184,0.0184,0.0168,0.0168,0.0164,0.018,0.0188,0.0184,0.0161,0.0181,0.0178,0.0179,0.018,0.0153,0.015,0.0173,0.0173,0.0173,0.0173,0,0.016,0.0181,0.0197,0.022,0.0232,0.0255,0.0256,0.0259,0.0247,0.0239,0.0242,0.0229,0.0226,0.0222,0.0216,0.022,0.0199,0.0185,0.0166,0.0184,0.0154,0.0151,0.0176,0.0175,0.0175,0.0174,0,0,0.0175,0.0218,0.0224,0.0247,0.0268,0.0286,0.0307,0.0319,0.0328,0.0311,0.0317,0.0315,0.0289,0.0289,0.027,0.0252,0.0234,0.0222,0.022,0.0195,0.0175,0.0157,0.0151,0.0212,0.0212,0.0212,0.0151,0,0.021,0.0271,0.0282,0.0337,0.0368,0.0364,0.0387,0.0392,0.0381,0.0379,0.0349,0.0349,0.0319,0.0316,0.0292,0.0253,0.0228,0.0251,0.0164,0.0162,0.0142,0.0149,0.0211,0.0149,0.0148,0.0148,0.0147,0,0.0251,0.0285,0.035,0.0398,0.0411,0.044,0.0467,0.0487,0.0475,0.0459,0.0439,0.0408,0.0388,0.0352,0.0285,0.0298,0.0243,0.0203,0.02,0.0171,0.0138,0.0129,0.0142,0.0142,0.0143,0.0143,0.0143,0,0.0275,0.0335,0.0388,0.0407,0.0455,0.048,0.0505,0.0512,0.0534,0.0511,0.051,0.0463,0.0449,0.0373,0.0291,0.0285,0.0205,0.0184,0.0114,0.0112,0.013,0.0129,0.0132,0.0132,0.0132,0.0132,0.0132,0,0.0315,0.0357,0.0405,0.0438,0.0495,0.0518,0.0574,0.0576,0.0593,0.0617,0.0558,0.0555,0.0453,0.0392,0.0304,0.0203,0.0211,0.0122,0.0097,0.0145,0.0147,0.0127,0.0127,0.013,0.013,0.0131,0.0131,0,0.0343,0.0373,0.0434,0.0491,0.0514,0.0558,0.0633,0.0666,0.0668,0.0695,0.0691,0.0632,0.0545,0.0435,0.0315,0.0231,0.0129,0.0089,0.0151,0.013,0.0045,0.0048,0.0003,0.0002,0.0001,0.0,-0.0,0,0.0364,0.04,0.0475,0.0508,0.0539,0.0608,0.0657,0.0699,0.0732,0.074,0.0749,0.0683,0.0621,0.0442,0.0317,0.014,0.0112,0.005,0.0045,0.0053,0.0033,0.0037,0.0041,-0.0002,-0.0002,-0.0002,-0.0003,0,0.0398,0.0423,0.0472,0.0543,0.0602,0.0677,0.0746,0.0779,0.0817,0.0819,0.0791,0.0694,0.0594,0.0444,0.0306,0.0179,0.0085,0.004,0.004,0.0035,0.0046,0.0028,0.0033,-0.0006,-0.0005,-0.0005,-0.0005,0,0.0415,0.045,0.051,0.0571,0.0642,0.0717,0.0763,0.0804,0.0846,0.0844,0.0834,0.072,0.0658,0.0464,0.0339,0.0209,0.0169,0.0115,0.0111,0.0113,0.0158,0.0189,0.0163,0,0,0,0,0,0.0428,0.0471,0.053,0.0603,0.0673,0.0721,0.0803,0.084,0.0874,0.0858,0.0849,0.075,0.0561,0.0484,0.0351,0.0313,0.0144,0.015,0.0079,-0.0024,-0.002,0.0012,0,0,0,0,0,0,0.0433,0.0498,0.0532,0.0616,0.0664,0.0758,0.0815,0.0845,0.0837,0.0839,0.0747,0.0696,0.052,0.0633,0.0341,0.0302,0.0233,0.0065,0.0062,-0.0026,-0.0022,-0.0019,0.0015,0,0,0,0,0]}]]